Regional Weather Roundup
Issued by NWS

Home | Current Version | Previous Version | Graphics & Text | Print | Product List | Glossary Off
Versions: 1 2 3 4 5 6 7 8 9 10 11 12 13 14 15 16 17 18 19 20 21 22 23 24 25 26 27 28 29 30 31 32 33 34 35 36 37 38 39 40 41 42 43 44 45 46 47 48 49 50

000
ASUS43 KTOP 311608
RWRKS

WEATHER ROUNDUP FOR KANSAS
NATIONAL WEATHER SERVICE GOODLAND KS
1100 AM CDT FRI OCT 31 2014

NOTE:  "FAIR" INDICATES FEW OR NO CLOUDS BELOW 12,000 FEET WITH NO
SIGNIFICANT WEATHER AND/OR OBSTRUCTIONS TO VISIBILITY.

KSZ001>006-013>018-027>032-041>047-311700-
NORTHWEST KANSAS

CITY           SKY/WX    TMP DP  RH WIND       PRES   REMARKS
GOODLAND       CLOUDY    32  29  88 SE9       30.50S
HAYS           MOSUNNY   36  21  55 NE15      30.56S WCI  26
HILL CITY      PTSUNNY   34  24  67 NE12      30.58R WCI  25
RUSSELL        SUNNY     35  19  52 NE15      30.55S WCI  25
$$

KSZ061>065-074>080-084>089-311700-
SOUTHWEST KANSAS

CITY           SKY/WX    TMP DP  RH WIND       PRES   REMARKS
DODGE CITY     MOSUNNY   38  28  67 NE13      30.53R WCI  30
ELKHART          N/A     44  27  51 E7          N/A
GARDEN CITY    PTSUNNY   34  29  82 NE12      30.51F WCI  25
GREAT BEND     MOSUNNY   37  23  56 NE15      30.55S WCI  28
LIBERAL        SUNNY     43  30  61 NE9       30.52S
PRATT          SUNNY     37  28  70 NE15      30.52S WCI  28
$$

KSZ066>073-081>083-090>101-311700-
SOUTHEAST KANSAS

CITY           SKY/WX    TMP DP  RH WIND       PRES   REMARKS
CHANUTE        LGT RAIN  41  26  55 N20G28    30.46S
COFFEYVILLE    SUNNY     43  30  60 N17G28    30.45S
HUTCHINSON     MOSUNNY   39  26  59 N15G23    30.53R WCI  31
MEDICINE LODGE   N/A     44  31  60 N13       30.50F
NEWTON         SUNNY     37  21  52 N17G25    30.52S WCI  28
PARSONS        SUNNY     43  28  55 N16G25    30.47R
WICHITA INTL   MOSUNNY   42  26  53 N16G25    30.51R
WICHITA JABRA  SUNNY     40  27  59 NE18G24   30.50R WCI  31
WICHITA MCCONL SUNNY     41  26  55 NE20G25   30.50S
WINFIELD       SUNNY     43  28  55 N20       30.49S
$$

KSZ007>012-019>026-033>040-048>060-102>105-311700-
NORTHEAST KANSAS

CITY           SKY/WX    TMP DP  RH WIND       PRES   REMARKS
CONCORDIA      SUNNY     36  19  50 N13       30.57S WCI  27
EMPORIA        SUNNY     38  21  50 N15G21    30.50S WCI  29
LAWRENCE       SUNNY     38  19  46 N15G21    30.52R WCI  29
MANHATTAN      SUNNY     38  21  50 N9        30.56R
MARYSVILLE     SUNNY     36  19  51 NE12      30.55S WCI  27
OLATHE IND     SUNNY     37  19  48 N21G28    30.49R WCI  26
OLATHE EXE     SUNNY     38  17  42 N20       30.47S WCI  28
SALINA         SUNNY     37  23  56 N15       30.57S WCI  28
TOPEKA BILLARD SUNNY     38  19  46 N15G24    30.53S WCI  29
TOPEKA FORBES  SUNNY     38  18  44 NE15      30.51S WCI  29
$$



USA.gov is the U.S. government's official web portal to all federal, state and local government web resources and services.